Time,TemperatureF,DewpointF,PressureIn,WindDirection,WindDirectionDegrees,WindSpeedMPH,WindSpeedGustMPH,Humidity,HourlyPrecipIn,Conditions,Clouds,dailyrainin,SolarRadiationWatts/m^2,SoftwareType,DateUTC
2013-09-20 00:05:00,56.0,56.0,-100.00,ENE,63,0.0,1.0,100,0.00,,,0.00,0.000000,,2013-09-20 04:05:00,
2013-09-20 00:14:00,56.0,56.0,-100.00,ENE,63,0.0,1.0,100,0.00,,,0.00,0.000000,,2013-09-20 04:14:00,
2013-09-20 00:44:00,56.0,56.0,-100.00,East,85,0.0,0.0,100,0.00,,,0.00,0.000000,,2013-09-20 04:44:00,
2013-09-20 00:54:00,56.0,56.0,-100.00,East,85,0.0,0.0,100,0.00,,,0.00,0.000000,,2013-09-20 04:54:00,
2013-09-20 01:03:00,56.0,56.0,-100.00,East,85,0.0,0.0,100,0.00,,,0.00,0.000000,,2013-09-20 05:03:00,
2013-09-20 01:13:00,56.0,56.0,-100.00,East,85,0.0,0.0,100,0.00,,,0.00,0.000000,,2013-09-20 05:13:00,
2013-09-20 01:43:00,54.0,54.0,-100.00,NW,313,0.0,2.0,100,0.00,,,0.00,0.000000,,2013-09-20 05:43:00,
2013-09-20 01:53:00,54.0,54.0,-100.00,NW,313,0.0,2.0,100,0.00,,,0.00,0.000000,,2013-09-20 05:53:00,
2013-09-20 02:03:00,54.0,54.0,-100.00,NW,313,0.0,2.0,100,0.00,,,0.00,0.000000,,2013-09-20 06:03:00,
2013-09-20 02:12:00,54.0,54.0,-100.00,NW,313,0.0,2.0,100,0.00,,,0.00,0.000000,,2013-09-20 06:12:00,
2013-09-20 02:43:00,53.0,53.0,-100.00,WNW,293,0.0,0.0,100,0.00,,,0.00,0.000000,,2013-09-20 06:43:00,
2013-09-20 02:52:00,53.0,53.0,-100.00,WNW,293,0.0,0.0,100,0.00,,,0.00,0.000000,,2013-09-20 06:52:00,
2013-09-20 03:02:00,53.0,53.0,-100.00,WNW,293,0.0,0.0,100,0.00,,,0.00,0.000000,,2013-09-20 07:02:00,
2013-09-20 03:12:00,53.0,53.0,-100.00,WNW,293,0.0,0.0,100,0.00,,,0.00,0.000000,,2013-09-20 07:12:00,
2013-09-20 03:42:00,52.0,52.0,-100.00,ENE,68,0.0,0.0,100,0.00,,,0.00,0.000000,,2013-09-20 07:42:00,
2013-09-20 03:53:00,52.0,52.0,-100.00,ENE,68,0.0,0.0,100,0.00,,,0.00,0.000000,,2013-09-20 07:53:00,
2013-09-20 04:02:00,52.0,52.0,-100.00,ENE,68,0.0,0.0,100,0.00,,,0.00,0.000000,,2013-09-20 08:02:00,
2013-09-20 04:11:00,52.0,52.0,-100.00,ENE,68,0.0,0.0,100,0.00,,,0.00,0.000000,,2013-09-20 08:11:00,
2013-09-20 04:42:00,51.0,51.0,-100.00,ESE,110,0.0,0.0,100,0.00,,,0.00,0.000000,,2013-09-20 08:42:00,
2013-09-20 04:52:00,51.0,51.0,-100.00,ESE,110,0.0,0.0,100,0.00,,,0.00,0.000000,,2013-09-20 08:52:00,
2013-09-20 05:01:00,51.0,51.0,-100.00,ESE,110,0.0,0.0,100,0.00,,,0.00,0.000000,,2013-09-20 09:01:00,
2013-09-20 05:12:00,51.0,51.0,-100.00,ESE,110,0.0,0.0,100,0.00,,,0.00,0.000000,,2013-09-20 09:12:00,
2013-09-20 05:44:00,51.0,51.0,-100.00,ESE,115,0.0,1.0,100,0.00,,,0.00,0.000000,,2013-09-20 09:44:00,
2013-09-20 05:54:00,51.0,51.0,-100.00,ESE,115,0.0,1.0,100,0.00,,,0.00,0.000000,,2013-09-20 09:54:00,
2013-09-20 06:04:00,51.0,51.0,-100.00,ESE,115,0.0,1.0,100,0.00,,,0.00,0.000000,,2013-09-20 10:04:00,
2013-09-20 06:13:00,51.0,51.0,-100.00,ESE,115,0.0,1.0,100,0.00,,,0.00,0.000000,,2013-09-20 10:13:00,
2013-09-20 06:42:00,52.0,52.0,-100.00,East,95,0.0,0.0,100,0.00,,,0.00,0.000000,,2013-09-20 10:42:00,
2013-09-20 06:53:00,52.0,52.0,-100.00,East,95,0.0,0.0,100,0.00,,,0.00,0.000000,,2013-09-20 10:53:00,
2013-09-20 07:03:00,52.0,52.0,-100.00,East,95,0.0,0.0,100,0.00,,,0.00,0.000000,,2013-09-20 11:03:00,
2013-09-20 07:12:00,52.0,52.0,-100.00,East,95,0.0,0.0,100,0.00,,,0.00,0.000000,,2013-09-20 11:12:00,
2013-09-20 07:42:00,52.0,52.0,-100.00,ESE,120,0.0,4.0,100,0.00,,,0.00,2.000000,,2013-09-20 11:42:00,
2013-09-20 07:52:00,52.0,52.0,-100.00,ESE,120,0.0,4.0,100,0.00,,,0.00,2.000000,,2013-09-20 11:52:00,
2013-09-20 08:02:00,52.0,52.0,-100.00,ESE,120,0.0,4.0,100,0.00,,,0.00,2.000000,,2013-09-20 12:02:00,
2013-09-20 08:12:00,52.0,52.0,-100.00,ESE,120,0.0,4.0,100,0.00,,,0.00,2.000000,,2013-09-20 12:12:00,
2013-09-20 08:43:00,53.0,53.0,-100.00,SE,127,0.0,0.0,100,0.00,,,0.00,27.000000,,2013-09-20 12:43:00,
2013-09-20 08:52:00,53.0,53.0,-100.00,SE,127,0.0,0.0,100,0.00,,,0.00,27.000000,,2013-09-20 12:52:00,
2013-09-20 09:02:00,53.0,53.0,-100.00,SE,127,0.0,0.0,100,0.00,,,0.00,27.000000,,2013-09-20 13:02:00,
2013-09-20 09:12:00,53.0,53.0,-100.00,SE,127,0.0,0.0,100,0.00,,,0.00,27.000000,,2013-09-20 13:12:00,
2013-09-20 09:53:00,61.0,61.0,-100.00,WNW,286,2.0,4.0,100,0.00,,,0.00,211.000000,,2013-09-20 13:53:00,
2013-09-20 10:02:00,61.0,61.0,-100.00,WNW,286,2.0,4.0,100,0.00,,,0.00,211.000000,,2013-09-20 14:02:00,
2013-09-20 10:11:00,61.0,61.0,-100.00,WNW,286,2.0,4.0,100,0.00,,,0.00,211.000000,,2013-09-20 14:11:00,
2013-09-20 12:13:00,70.0,62.0,-100.00,SSE,162,2.0,7.0,77,-99.99,,,0.00,347.000000,,2013-09-20 16:13:00,
2013-09-20 12:43:00,72.0,64.0,-100.00,WSW,253,2.0,5.0,75,0.00,,,0.00,367.000000,,2013-09-20 16:43:00,
2013-09-20 12:53:00,72.0,64.0,-100.00,WSW,253,2.0,5.0,75,0.00,,,0.00,367.000000,,2013-09-20 16:53:00,
2013-09-20 13:03:00,72.0,64.0,-100.00,WSW,253,2.0,5.0,75,0.00,,,0.00,367.000000,,2013-09-20 17:03:00,
2013-09-20 13:13:00,72.0,64.0,-100.00,WSW,253,2.0,5.0,75,0.00,,,0.00,367.000000,,2013-09-20 17:13:00,
2013-09-20 13:43:00,78.0,63.0,-100.00,East,101,3.0,7.0,61,0.00,,,0.00,518.000000,,2013-09-20 17:43:00,
2013-09-20 13:53:00,78.0,63.0,-100.00,East,101,3.0,7.0,61,0.00,,,0.00,518.000000,,2013-09-20 17:53:00,
2013-09-20 14:02:00,78.0,63.0,-100.00,East,101,3.0,7.0,61,0.00,,,0.00,518.000000,,2013-09-20 18:02:00,
2013-09-20 14:12:00,78.0,63.0,-100.00,East,101,3.0,7.0,61,0.00,,,0.00,518.000000,,2013-09-20 18:12:00,
2013-09-20 14:42:00,79.0,63.0,-100.00,ESE,113,4.0,9.0,59,0.00,,,0.00,558.000000,,2013-09-20 18:42:00,
2013-09-20 14:52:00,79.0,63.0,-100.00,ESE,113,4.0,9.0,59,0.00,,,0.00,558.000000,,2013-09-20 18:52:00,
2013-09-20 15:02:00,79.0,63.0,-100.00,ESE,113,4.0,9.0,59,0.00,,,0.00,558.000000,,2013-09-20 19:02:00,
2013-09-20 15:12:00,79.0,63.0,-100.00,ESE,113,4.0,9.0,59,0.00,,,0.00,558.000000,,2013-09-20 19:12:00,
2013-09-20 15:42:00,80.0,62.0,-100.00,ESE,114,3.0,9.0,54,0.00,,,0.00,486.000000,,2013-09-20 19:42:00,
2013-09-20 15:53:00,80.0,62.0,-100.00,ESE,114,3.0,9.0,54,0.00,,,0.00,486.000000,,2013-09-20 19:53:00,
2013-09-20 16:03:00,80.0,62.0,-100.00,ESE,114,3.0,9.0,54,0.00,,,0.00,486.000000,,2013-09-20 20:03:00,
2013-09-20 16:12:00,80.0,62.0,-100.00,ESE,114,3.0,9.0,54,0.00,,,0.00,486.000000,,2013-09-20 20:12:00,
2013-09-20 16:42:00,83.0,64.0,-100.00,East,96,2.0,9.0,52,0.00,,,0.00,438.000000,,2013-09-20 20:42:00,
2013-09-20 16:52:00,83.0,64.0,-100.00,East,96,2.0,9.0,52,0.00,,,0.00,438.000000,,2013-09-20 20:52:00,
2013-09-20 17:02:00,83.0,64.0,-100.00,East,96,2.0,9.0,52,0.00,,,0.00,438.000000,,2013-09-20 21:02:00,
2013-09-20 17:12:00,83.0,64.0,-100.00,East,96,2.0,9.0,52,0.00,,,0.00,438.000000,,2013-09-20 21:12:00,
2013-09-20 17:45:00,77.0,63.0,-100.00,ESE,113,3.0,8.0,61,0.00,,,0.00,159.000000,,2013-09-20 21:45:00,
2013-09-20 17:55:00,77.0,63.0,-100.00,ESE,113,3.0,8.0,61,0.00,,,0.00,159.000000,,2013-09-20 21:55:00,
2013-09-20 18:04:00,77.0,63.0,-100.00,ESE,113,3.0,8.0,61,0.00,,,0.00,159.000000,,2013-09-20 22:04:00,
2013-09-20 18:14:00,77.0,63.0,-100.00,ESE,113,3.0,8.0,61,0.00,,,0.00,159.000000,,2013-09-20 22:14:00,
2013-09-20 18:44:00,75.0,63.0,-100.00,SE,127,2.0,5.0,67,0.00,,,0.00,79.000000,,2013-09-20 22:44:00,
2013-09-20 18:53:00,75.0,63.0,-100.00,SE,127,2.0,5.0,67,0.00,,,0.00,79.000000,,2013-09-20 22:53:00,
2013-09-20 19:02:00,75.0,63.0,-100.00,SE,127,2.0,5.0,67,0.00,,,0.00,79.000000,,2013-09-20 23:02:00,
2013-09-20 19:13:00,75.0,63.0,-100.00,SE,127,2.0,5.0,67,0.00,,,0.00,79.000000,,2013-09-20 23:13:00,
2013-09-20 19:42:00,72.0,62.0,-100.00,SE,138,4.0,9.0,70,0.00,,,0.00,32.000000,,2013-09-20 23:42:00,
2013-09-20 19:53:00,72.0,62.0,-100.00,SE,138,4.0,9.0,70,0.00,,,0.00,32.000000,,2013-09-20 23:53:00,
2013-09-20 20:02:00,72.0,62.0,-100.00,SE,138,4.0,9.0,70,0.00,,,0.00,32.000000,,2013-09-21 00:02:00,
2013-09-20 20:11:00,72.0,62.0,-100.00,SE,138,4.0,9.0,70,0.00,,,0.00,32.000000,,2013-09-21 00:11:00,
2013-09-20 20:42:00,70.0,62.0,-100.00,SE,137,4.0,10.0,75,0.00,,,0.00,0.000000,,2013-09-21 00:42:00,
2013-09-20 20:52:00,70.0,62.0,-100.00,SE,137,4.0,10.0,75,0.00,,,0.00,0.000000,,2013-09-21 00:52:00,
2013-09-20 21:02:00,70.0,62.0,-100.00,SE,137,4.0,10.0,75,0.00,,,0.00,0.000000,,2013-09-21 01:02:00,
2013-09-20 21:12:00,70.0,62.0,-100.00,SE,137,4.0,10.0,75,0.00,,,0.00,0.000000,,2013-09-21 01:12:00,
2013-09-20 21:42:00,69.0,64.0,-100.00,SE,144,0.0,7.0,83,0.00,,,0.00,0.000000,,2013-09-21 01:42:00,
2013-09-20 21:52:00,69.0,64.0,-100.00,SE,144,0.0,7.0,83,0.00,,,0.00,0.000000,,2013-09-21 01:52:00,
2013-09-20 22:03:00,69.0,64.0,-100.00,SE,144,0.0,7.0,83,0.00,,,0.00,0.000000,,2013-09-21 02:03:00,
2013-09-20 22:12:00,69.0,64.0,-100.00,SE,144,0.0,7.0,83,0.00,,,0.00,0.000000,,2013-09-21 02:12:00,
2013-09-20 22:42:00,66.0,63.0,-100.00,SE,124,0.0,4.0,91,0.00,,,0.00,0.000000,,2013-09-21 02:42:00,
2013-09-20 22:52:00,66.0,63.0,-100.00,SE,124,0.0,4.0,91,0.00,,,0.00,0.000000,,2013-09-21 02:52:00,
2013-09-20 23:02:00,66.0,63.0,-100.00,SE,124,0.0,4.0,91,0.00,,,0.00,0.000000,,2013-09-21 03:02:00,
2013-09-20 23:12:00,66.0,63.0,-100.00,SE,124,0.0,4.0,91,0.00,,,0.00,0.000000,,2013-09-21 03:12:00,
2013-09-20 23:44:00,67.0,63.0,-100.00,SSE,155,1.0,5.0,88,0.00,,,0.00,0.000000,,2013-09-21 03:44:00,
2013-09-20 23:55:00,67.0,63.0,-100.00,SSE,155,1.0,5.0,88,0.00,,,0.00,0.000000,,2013-09-21 03:55:00,